Flag for Norway Weather past 2 weeks in Vennesla, Norway

Now
39 °F

Partly cloudy.


Feels Like: 37 °F
Forecast: 33 / 46 °F
Wind: 3 mph from South

Location: Kristiansand / Kjevik

Current Time: Mar 29, 2015 at 8:38:03 AM

Latest Report: Mar 29, 2015 at 7:50 AM


Visibility: N/A

Pressure: 29.21 "Hg

Humidity: 93%

Dew point: 37 °F

Location of VenneslaLocation

Historic Weather in Vennesla — Graph

°F

Vennesla temperature yesterday

Maximum temperature yesterday: 43 °F (at 10:50 AM)
Minimum temperature yesterday: 25 °F (at 4:50 AM)
Average temperature yesterday: 35 °F

Past Weeks' High & Low Weather Summary

 TemperatureHumidityPressure
High52 °F (Mar 19, 3:50 PM)100% (Mar 19, 3:50 AM)30.77 "Hg (Mar 19, 3:50 AM)
Low25 °F (Mar 28, 4:50 AM)27% (Mar 14, 2:50 PM)29.21 "Hg (Mar 29, 7:20 AM)
Average39 °F79%30.16 "Hg
* Reported Mar 14 6:20 AM — Mar 29 7:20 AM, Vennesla, Weather by CustomWeather, © 2015

Note: Actual official high and low records may vary slightly from our data, if they occured in-between our weather recording intervals... More about our weather records

Advertising

Vennesla weather history for previous 24 hours

 ConditionsComfort  
Time TempWeatherWind HumidityBarometerVisibility
7:20 AM
Sun, Mar 29
39 °FPartly cloudy.3 mph93%29.21 "HgN/A
6:50 AM39 °FPartly cloudy.3 mph93%29.24 "HgN/A
6:20 AM39 °FPassing clouds.5 mph93%29.24 "HgN/A
5:50 AM39 °FPassing clouds.7 mph93%29.24 "HgN/A
5:20 AM39 °FMostly cloudy.8 mph93%29.24 "HgN/A
4:50 AM41 °FMostly cloudy.5 mph87%29.24 "HgN/A
4:20 AM41 °FMostly cloudy.2 mph93%29.24 "Hg5 mi
3:50 AM41 °FLow clouds.3 mph100%29.24 "Hg3 mi
3:20 AM41 °FFog.5 mph93%29.24 "Hg2 mi
1:50 AM41 °FFog.10 mph100%29.24 "Hg2 mi
1:20 AM43 °FFog.10 mph93%29.24 "Hg2 mi
12:50 AM41 °FFog.13 mph100%29.27 "Hg2 mi
12:20 AM41 °FFog.17 mph100%29.27 "Hg2 mi
11:50 PM
Sat, Mar 28
41 °FLight rain. Low clouds.15 mph100%29.30 "Hg2 mi
11:20 PM41 °FLight rain. Low clouds.10 mph93%29.30 "Hg1 mi
10:50 PM39 °FLight snow. Low clouds.10 mph100%29.33 "Hg1 mi
10:20 PM39 °FRain. Passing clouds.9 mph93%29.39 "Hg1 mi
9:50 PM36 °FRain. Fog.9 mph93%29.42 "Hg1 mi
9:20 PM36 °FRain. Fog.12 mph93%29.45 "Hg2 mi
8:50 PM34 °FRain. Fog.7 mph93%29.50 "Hg1 mi
8:20 PM34 °FRain. Fog.6 mph93%29.53 "Hg1 mi
7:50 PM36 °FRain. Fog.9 mph93%29.56 "Hg2 mi
7:20 PM36 °FLight rain. Fog.9 mph93%29.56 "Hg3 mi
6:50 PM36 °FLight rain. Fog.12 mph93%29.59 "Hg3 mi
6:20 PM37 °FRain. Fog.13 mph87%29.62 "Hg3 mi
5:50 PM37 °FLight rain. Partly sunny.17 mph87%29.62 "Hg6 mi
5:20 PM39 °FLight rain. Partly sunny.16 mph70%29.65 "HgN/A
4:50 PM39 °FLight rain. Partly sunny.16 mph70%29.68 "HgN/A
4:20 PM41 °FPartly sunny.12 mph70%29.71 "HgN/A
3:50 PM41 °FBroken clouds.14 mph76%29.74 "HgN/A
3:20 PM41 °FPartly sunny.15 mph81%29.74 "HgN/A
2:50 PM41 °FPartly sunny.14 mph81%29.77 "HgN/A
2:20 PM41 °FPartly sunny.14 mph81%29.80 "HgN/A
1:50 PM41 °FBroken clouds.14 mph81%29.80 "HgN/A
1:20 PM41 °FBroken clouds.12 mph81%29.83 "HgN/A
12:50 PM41 °FBroken clouds.10 mph81%29.86 "HgN/A
12:20 PM41 °FPartly sunny.8 mph87%29.86 "HgN/A
11:50 AM41 °FPartly sunny.7 mph81%29.86 "HgN/A
11:20 AM41 °FScattered clouds.6 mph81%29.89 "HgN/A
10:50 AM43 °FScattered clouds.2 mph71%29.89 "HgN/A
10:20 AM39 °FScattered clouds.5 mph75%29.89 "HgN/A
9:50 AM37 °FPassing clouds.2 mph81%29.92 "HgN/A
9:20 AM39 °FSunny.1 mph75%29.92 "Hg10 mi
8:50 AM36 °FSunny.No wind81%29.95 "Hg10 mi
8:20 AM30 °FSunny.1 mph93%29.95 "Hg10 mi
Weather by CustomWeather, © 2015

See weather overviewHow to use our weather pages